Location: Pinon Hills
(34.4429°N, 117.6403°W)
Time: 00:05:26
(UTC-07:00)

Amateur Radio Satellites - All Passes

Search period start: 18 April 2014 23:35
Search period end: 19 April 2014 23:35
Location: Pinon Hills, 34.4429°N, 117.6403°W

Satellite Date Start Highest point End Downlink Frequencies (MHz)
Time Altitude Azimuth
SO-50 18 Apr 23:35:16 23:37:08 12° 46° (NE) 23:39:00 436.795 FM
PCSat 19 Apr 00:15:28 00:20:38 49° 111° (ESE) 00:25:50 145.825 MHz
KITSAT 1 19 Apr 01:03:14 01:04:59 11° 99° (E) 01:06:45 435.175 FM
SO-50 19 Apr 01:13:33 01:18:13 79° 242° (WSW) 01:22:57 436.795 FM
Sapphire 19 Apr 01:13:41 01:18:57 53° 299° (WNW) 01:24:15 437.095 MHz 1200 baud AX-25 AFSK
Oscar 19 19 Apr 01:39:26 01:43:39 25° 96° (E) 01:47:52 437.125 CW, 437.150 USB
Oscar 16 19 Apr 01:47:17 01:51:55 32° 97° (E) 01:56:32 437.025 USB, Beacon 2401.1428
OPAL 19 Apr 01:55:34 01:59:44 27° 67° (ENE) 02:03:58 ?
PCSat 19 Apr 02:00:17 02:04:18 21° 307° (NW) 02:08:20 145.825 MHz
UOSAT-12 19 Apr 02:00:32 02:03:51 19° 49° (NE) 02:07:08 437.025 FM, 437.400 FM
Uribyol 2 19 Apr 02:21:28 02:26:12 35° 98° (E) 02:30:54 436.500 FM
KITSAT 1 19 Apr 02:50:58 02:59:02 76° 114° (ESE) 03:07:09 435.175 FM
Gurwin Techsat 1B 19 Apr 02:51:50 02:55:36 20° 94° (E) 02:59:22 435.225 FM
AO-27 19 Apr 03:01:05 03:06:17 87° 103° (ESE) 03:11:28 436.795 MHz FM
ITAMSAT 1 19 Apr 03:11:57 03:17:07 75° 285° (WNW) 03:22:16 435.822 SSB
Oscar 19 19 Apr 03:18:22 03:22:58 33° 290° (WNW) 03:27:33 437.125 CW, 437.150 USB
AO-Echo 19 Apr 03:23:58 03:28:42 67° 285° (WNW) 03:33:20 ?
Oscar 16 19 Apr 03:26:52 03:31:05 26° 292° (WNW) 03:35:18 437.025 USB, Beacon 2401.1428
JAS-1B 19 Apr 03:31:21 03:34:32 15° 94° (E) 03:37:48 435.800 - 435.900 CW/SSB
OPAL 19 Apr 03:34:10 03:38:29 29° 261° (W) 03:42:53 ?
AO-40 19 Apr 03:38:59 09:36:29 44° 181° (S) 15:31:21 Beacon 2401.320
TMSAT-1 19 Apr 03:39:22 03:44:21 41° 99° (E) 03:49:19 436.925 FM
UOSAT-12 19 Apr 03:39:43 03:44:14 47° 245° (WSW) 03:48:41 437.025 FM, 437.400 FM
Uosat F 19 Apr 03:43:47 03:46:20 14° 93° (E) 03:48:52 435.120 FM
Uribyol 2 19 Apr 04:01:24 04:05:26 24° 292° (WNW) 04:09:28 436.500 FM
Gurwin Techsat 1B 19 Apr 04:30:43 04:35:42 43° 288° (WNW) 04:40:40 435.225 FM
KITSAT 1 19 Apr 04:48:56 04:55:12 24° 313° (NW) 05:01:30 435.175 FM
AO-7 19 Apr 04:49:29 04:57:23 45° 101° (E) 05:05:14 29.400 - 29.500 MHz
RS-15 19 Apr 05:15:56 05:24:03 23° 102° (ESE) 05:31:55 29.354 - 29.394 USB, Beacon 29.352 USB
JAS-1B 19 Apr 05:20:01 05:25:31 54° 287° (WNW) 05:31:19 435.800 - 435.900 CW/SSB
TMSAT-1 19 Apr 05:20:04 05:23:57 21° 293° (WNW) 05:27:49 436.925 FM
Uosat F 19 Apr 05:20:31 05:25:23 53° 287° (WNW) 05:30:13 435.120 FM
STRAND 1 19 Apr 06:11:12 06:15:52 37° 71° (ENE) 06:20:31 ?
AO-7 19 Apr 06:42:34 06:49:54 37° 297° (WNW) 06:57:15 29.400 - 29.500 MHz
Hamsat 19 Apr 06:43:30 06:47:42 46° 99° (E) 06:51:54 145.90 MHz
MaSat-1 19 Apr 06:48:11 06:50:31 19° 64° (ENE) 06:53:06 437.345 MHz
JAS-2 19 Apr 07:17:22 07:22:19 33° 99° (E) 07:27:44 435.800 - 435.900 CW/SSB, 435.910 FM
RS-15 19 Apr 07:23:45 07:35:11 79° 299° (WNW) 07:46:15 29.354 - 29.394 USB, Beacon 29.352 USB
STRAND 1 19 Apr 07:51:14 07:55:06 22° 265° (W) 07:58:58 ?
SO-67 19 Apr 08:19:42 08:23:09 57° 283° (WNW) 08:26:34 435.3500 MHz FM
Hamsat 19 Apr 08:21:13 08:23:15 13° 293° (WNW) 08:25:17 145.90 MHz
MaSat-1 19 Apr 08:26:36 08:28:49 17° 251° (WSW) 08:31:18 437.345 MHz
PANSAT 19 Apr 08:47:51 08:50:57 23° 167° (SSE) 08:54:03 not established
JAS-2 19 Apr 09:02:46 09:07:18 27° 290° (WNW) 09:12:11 435.800 - 435.900 CW/SSB, 435.910 FM
PCSat 19 Apr 09:07:45 09:11:41 20° 52° (NE) 09:15:36 145.825 MHz
HO-68 19 Apr 09:29:56 09:36:41 43° 100° (E) 09:43:24 435.675 MHz FM
RS-15 19 Apr 09:41:22 09:49:31 22° 324° (NW) 09:57:34 29.354 - 29.394 USB, Beacon 29.352 USB
Oscar 11 19 Apr 09:54:39 09:58:13 24° 96° (E) 10:01:47 145.825 FM, Beacon 2401.500 USB
Sapphire 19 Apr 10:05:08 10:10:28 57° 61° (ENE) 10:15:46 437.095 MHz 1200 baud AX-25 AFSK
PANSAT 19 Apr 10:27:16 10:30:47 33° 179° (S) 10:34:17 not established
KITSAT 1 19 Apr 10:49:20 10:55:13 21° 45° (NE) 11:01:03 435.175 FM
PCSat 19 Apr 10:50:08 10:55:23 52° 249° (WSW) 11:00:35 145.825 MHz
Saudisat 1A 19 Apr 11:07:08 11:11:36 83° 299° (WNW) 11:16:05 436.775 MHz
HO-68 19 Apr 11:17:58 11:24:08 32° 295° (WNW) 11:30:18 435.675 MHz FM
FUNcube-1 19 Apr 11:19:43 11:24:00 76° 102° (ESE) 11:28:22 145.950 - 145.970 MHz USB
Oscar 11 19 Apr 11:30:49 11:34:17 24° 290° (WNW) 11:37:45 145.825 FM, Beacon 2401.500 USB
Sapphire 19 Apr 11:50:14 11:53:20 16° 256° (WSW) 11:56:26 437.095 MHz 1200 baud AX-25 AFSK
Oscar 10/S400 19 Apr 12:00:31 13:44:33 42° 258° (WSW) 18:35:14 145.825 - 145.975 CW/USB, Beacon 145.810 USB
RS-15 19 Apr 12:06:49 12:08:17 10° 1° (N) 12:09:45 29.354 - 29.394 USB, Beacon 29.352 USB
PANSAT 19 Apr 12:07:25 12:10:37 25° 192° (SSW) 12:13:49 not established
KITSAT 1 19 Apr 12:43:27 12:51:35 85° 245° (WSW) 12:59:38 435.175 FM
ITAMSAT 1 19 Apr 12:50:46 12:52:44 12° 63° (ENE) 12:54:41 435.822 SSB
Oscar 19 19 Apr 12:53:07 12:57:16 26° 68° (ENE) 13:01:26 437.125 CW, 437.150 USB
AO-Echo 19 Apr 12:58:22 12:59:51 11° 64° (ENE) 13:01:20 ?
Oscar 16 19 Apr 13:00:56 13:05:28 33° 70° (ENE) 13:10:02 437.025 USB, Beacon 2401.1428
Uribyol 2 19 Apr 13:36:00 13:40:42 37° 71° (ENE) 13:45:26 436.500 FM
PANSAT 19 Apr 13:49:46 13:50:16 10° 203° (SSW) 13:50:45 not established
Gurwin Techsat 1B 19 Apr 14:09:37 14:13:39 23° 67° (ENE) 14:17:43 435.225 FM
JAS-1B 19 Apr 14:14:00 14:17:40 14° 62° (ENE) 14:21:05 435.800 - 435.900 CW/SSB
AO-27 19 Apr 14:15:39 14:20:51 89° 256° (WSW) 14:26:04 436.795 MHz FM
ISS 19 Apr 14:17:45 14:20:38 27° 130° (SE) 14:23:32 145.800 FM
RS-15 19 Apr 14:18:28 14:26:50 24° 38° (NE) 14:35:16 29.354 - 29.394 USB, Beacon 29.352 USB
ITAMSAT 1 19 Apr 14:26:24 14:31:34 72° 258° (WSW) 14:36:45 435.822 SSB
Oscar 19 19 Apr 14:31:53 14:36:25 32° 263° (W) 14:41:00 437.125 CW, 437.150 USB
AO-Echo 19 Apr 14:32:41 14:37:57 78° 258° (WSW) 14:43:08 ?
Oscar 16 19 Apr 14:40:42 14:44:48 24° 264° (W) 14:48:57 437.025 USB, Beacon 2401.1428
KITSAT 1 19 Apr 14:42:23 14:45:45 13° 260° (W) 14:49:07 435.175 FM
Uosat F 19 Apr 14:54:09 14:56:48 15° 64° (ENE) 14:59:28 435.120 FM
TMSAT-1 19 Apr 14:56:37 15:01:38 45° 72° (ENE) 15:06:40 436.925 FM
Uribyol 2 19 Apr 15:16:22 15:20:14 21° 265° (W) 15:24:08 436.500 FM
SO-50 19 Apr 15:25:12 15:29:40 81° 117° (ESE) 15:34:11 436.795 FM
AO-7 19 Apr 15:44:38 15:52:20 45° 65° (ENE) 16:00:02 29.400 - 29.500 MHz
OPAL 19 Apr 15:46:41 15:51:55 84° 286° (WNW) 15:57:07 ?
Gurwin Techsat 1B 19 Apr 15:48:26 15:53:21 38° 262° (W) 15:58:17 435.225 FM
ISS 19 Apr 15:54:32 15:57:21 24° 325° (NW) 16:00:10 145.800 FM
JAS-1B 19 Apr 15:59:08 16:07:38 87° 75° (ENE) 16:14:41 435.800 - 435.900 CW/SSB
RS-15 19 Apr 16:29:53 16:40:54 85° 62° (ENE) 16:52:17 29.354 - 29.394 USB, Beacon 29.352 USB
Uosat F 19 Apr 16:30:09 16:35:05 57° 259° (W) 16:40:02 435.120 FM
TMSAT-1 19 Apr 16:38:09 16:41:43 18° 266° (W) 16:45:18 436.925 FM
SO-50 19 Apr 17:09:34 17:10:48 11° 315° (NW) 17:12:03 436.795 FM
Hamsat 19 Apr 17:34:23 17:37:33 21° 70° (ENE) 17:40:44 145.90 MHz
AO-7 19 Apr 17:37:45 17:45:07 35° 261° (W) 17:52:32 29.400 - 29.500 MHz
UOSAT-12 19 Apr 17:47:15 17:51:45 67° 300° (WNW) 17:56:22 437.025 FM, 437.400 FM
JAS-1B 19 Apr 17:54:25 17:58:27 14° 266° (W) 18:02:14 435.800 - 435.900 CW/SSB
STRAND 1 19 Apr 18:26:32 18:29:41 16° 94° (E) 18:32:48 ?
RS-15 19 Apr 18:44:41 18:51:53 20° 259° (WSW) 18:59:15 29.354 - 29.394 USB, Beacon 29.352 USB
SO-67 19 Apr 18:50:24 18:53:16 24° 73° (ENE) 18:56:08 435.3500 MHz FM
AO-40 19 Apr 18:54:15 19:06:00 16° 202° (SSW) 19:11:25 Beacon 2401.320
Hamsat 19 Apr 19:09:54 19:13:22 25° 264° (W) 19:16:53 145.90 MHz
JAS-2 19 Apr 19:10:27 19:16:29 80° 76° (ENE) 19:21:55 435.800 - 435.900 CW/SSB, 435.910 FM
Saudisat 1A 19 Apr 19:37:50 19:41:39 28° 54° (NE) 19:45:24 436.775 MHz
HO-68 19 Apr 19:56:04 20:01:19 23° 61° (ENE) 20:06:34 435.675 MHz FM
STRAND 1 19 Apr 20:04:12 20:09:04 47° 288° (WNW) 20:13:55 ?
SO-67 19 Apr 20:24:29 20:26:24 14° 266° (W) 20:28:19 435.3500 MHz FM
Oscar 11 19 Apr 20:48:00 20:50:00 13° 67° (ENE) 20:52:01 145.825 FM, Beacon 2401.500 USB
MaSat-1 19 Apr 20:48:27 20:50:54 21° 110° (ESE) 20:53:06 437.345 MHz
ISS 19 Apr 20:50:31 20:51:42 11° 26° (NNE) 20:52:52 145.800 FM
Saudisat 1A 19 Apr 21:17:34 21:21:06 24° 249° (WSW) 21:24:37 436.775 MHz
HO-68 19 Apr 21:41:24 21:48:25 61° 257° (WSW) 21:55:30 435.675 MHz FM
FUNcube-1 19 Apr 22:13:13 22:17:07 37° 73° (ENE) 22:20:57 145.950 - 145.970 MHz USB
Oscar 11 19 Apr 22:21:39 22:25:46 45° 261° (W) 22:29:55 145.825 FM, Beacon 2401.500 USB
ISS 19 Apr 22:25:33 22:28:55 78° 44° (NE) 22:32:15 145.800 FM
Sapphire 19 Apr 23:04:09 23:05:49 11° 102° (ESE) 23:07:29 437.095 MHz 1200 baud AX-25 AFSK
